Location: Newark
(44.3681°N, 100.3364°W)
Time: 00:53:40
(UTC+00:00)

Vanguard 1 - Pass Details

Date: 29 February 2020
Orbit: 649 x 3834 km, 34.2° (Epoch: 01 April)

Event Time Altitude Azimuth Distance (km) Brightness Sun altitude
Rises 14:49:27 0° 254° (WSW) 7,910 14.2 14.5°
Reaches altitude 10° 14:54:54 10° 252° (WSW) 6,938 14.0 15.3°
Maximum altitude 15:17:27 61° 180° (S) 3,533 13.4 18.8°
Drops below altitude 10° 15:32:23 10° 104° (ESE) 4,842 15.1 21.1°
Sets 15:35:25 0° 101° (E) 5,503 15.0 21.5°
